Regional Weather Roundup
Issued by NWS Goodland, KS

Home | Current Version | Previous Version | Graphics & Text | Print | Product List | Glossary On
Versions: 1 2 3 4 5 6 7 8 9 10 11 12 13 14 15 16 17 18 19 20 21 22 23 24 25 26 27 28 29 30 31 32 33 34 35 36 37 38 39 40 41 42 43 44 45 46 47 48 49 50
000
ASUS43 KGLD 071708
RWRGLD

GOODLAND FORECAST AREA HOURLY WEATHER ROUNDUP
NATIONAL WEATHER SERVICE GOODLAND KS
1000 AM MST WED DEC 07 2016

...OFFICIAL OBSERVATIONS...

CITY           SKY/WX    TMP DP  RH WIND       PRES   REMARKS
GOODLAND KS    LGT SNOW  13   8  81 NE12      30.25R WCI  -1
HILL CITY KS   LGT SNOW  19  14  81 N13       30.36R VSB 3/4 WCI   6
IMPERIAL NEB   LGT SNOW  13   7  77 N15       30.32R VSB 1   WCI  -3
MCCOOK NEB     LGT SNOW  15   9  76 N14       30.34R WCI   0
AKRON CO       LGT SNOW  10   4  76 N14       30.22R WCI  -6
BURLINGTON CO  LGT SNOW  14   6  70 NE15      30.21R WCI  -1
LIMON CO       LGT SNOW  14  10  84 NE8       30.14R FOG
$$

...UNOFFICIAL OBSERVATIONS...

CITY           SKY/WX    TMP DP  RH WIND       PRES   REMARKS
COLBY KS       LGT SNOW  18  14  86 N12       30.30R WCI   5
LENORA KS        N/A     17  32 100 MISG        N/A
NORTON KS      CLOUDY    18  10  73 N13       30.33R HAZE    WCI   4
SHARON SPRINGS   N/A     15  12  88 NE15G23     N/A  WCI   0
TRENTON NEB      N/A     13  32 100 N5          N/A
KIT CARSON CO    N/A     15  10  80 MISG        N/A
YUMA CO        LGT SNOW  10   5  79 N13       30.26R WCI  -5
$$




USA.gov is the U.S. government's official web portal to all federal, state and local government web resources and services.